Location: Hillern
(53.0557°N, 9.8577°E)
Time: 01:31:17
(UTC+00:00)

Cosmos 1743 - Pass Details

Date: 19 May 2025
Orbit: 431 x 441 km, 82.5° (Epoch: 23 June)

Event Time Altitude Azimuth Distance (km) Brightness Sun altitude
Rises 20:14:42 0° 345° (NNW) 2,462 7.4 -7.0°
Maximum altitude 20:20:10 51° 264° (W) 571 3.2 -7.6°
Drops below altitude 10° 20:23:29 10° 188° (S) 1,564 4.8 -7.9°
Enters shadow 20:24:48 - 184° (S) 2,111 5.4 -8.0°
